Regional Weather Roundup
Issued by NWS Northern Indiana

Home | Current Version | Previous Version | Graphics & Text | Print | Product List | Glossary On
Versions: 1 2 3 4 5 6 7 8 9 10 11 12 13 14 15 16 17 18 19 20 21 22 23 24 25 26 27 28 29 30 31 32 33 34 35 36 37 38 39 40 41 42 43 44 45 46 47 48 49 50
000
ASUS43 KIWX 040710
RWRIWX

KIWX WEATHER ROUNDUP
NATIONAL WEATHER SERVICE NORTHERN INDIANA
200 AM EST WED MAR 04 2015

NOTE: "FAIR" INDICATES FEW OR NO CLOUDS BELOW 12,000 FEET WITH NO
SIGNIFICANT WEATHER AND/OR OBSTRUCTIONS TO VISIBILITY.

* THESE STATIONS ARE NOT UNDER NWS QUALITY CONTROL. THEY ALSO MAY NOT
  REPORT WEATHER SUCH AS PRECIPITATION OR FOG.

INZ001>027-040800-
NORTHERN INDIANA

CITY           SKY/WX    TMP DP  RH WIND       PRES   REMARKS
GARY*          CLOUDY    33  22  63 W10G16    29.89R WCI  25
VALPARAISO     CLOUDY    30  24  78 W6        29.88R WCI  24
MICHIGAN CITY* CLOUDY    32  21  64 NW6       29.87S WCI  26
LAPORTE*       CLOUDY    32  27  79 NW5       29.87R WCI  28
KNOX*            N/A     32  18  55 NW8       29.87S WCI  25
SOUTH BEND     CLOUDY    31  25  78 NW8       29.86S WCI  23
GOSHEN         CLOUDY    31  25  78 W12       29.85R WCI  22
MONTICELLO*    CLOUDY    32  30  92 W8        29.89R WCI  25
LOGANSPORT*    CLOUDY    32  32 100 W8        29.89R WCI  25
ROCHESTER*     CLOUDY    34  32  93 W5        29.87S WCI  30
WARSAW*        CLOUDY    32  28  86 NW10      29.86R WCI  24
ANGOLA*        CLOUDY    32  25  74 NW6       29.84R WCI  26
FORT WAYNE     CLOUDY    33  30  88 W9        29.86R WCI  25
HUNTINGTON*    CLOUDY    33  28  80 W9        29.87R WCI  25
PERU/GRISSOM   CLOUDY    33  30  90 W9        29.87R WCI  25
MARION*        CLOUDY    33  31  93 W9        29.90R WCI  25

$$
INZ028>050-040800-
CENTRAL INDIANA

CITY           SKY/WX    TMP DP  RH WIND       PRES   REMARKS
LAFAYETTE      CLOUDY    33  28  81 W7        29.90R WCI  27
KOKOMO*        CLOUDY    34  30  86 NW12      29.89  WCI  25
MUNCIE*        CLOUDY    34  31  88 W8        29.89R WCI  27
INDIANAPOLIS   LGT RAIN  34  32  92 NW7       29.89S WCI  28

$$
MIZ043>046-050>051-056>058-064>065-071>073-077>080-040800-
SOUTHWEST LOWER MICHIGAN

CITY           SKY/WX    TMP DP  RH WIND       PRES   REMARKS
BATTLE CREEK   CLOUDY    31  23  72 W8        29.82R WCI  23
BENTON HARBOR  CLOUDY    30  25  81 W8        29.86R WCI  22
COLDWATER*     CLOUDY    31  24  76 W7        29.84R WCI  24
HILLSDALE*     CLOUDY    31  26  79 NW12      29.81R WCI  22
HOLLAND        CLOUDY    31  23  72 W8        29.83R WCI  23
GRAND RAPIDS   CLOUDY    29  22  75 W9        29.81R WCI  20
KALAMAZOO        N/A    N/A N/A N/A MISG      29.83R
STURGIS*       CLOUDY    30  27  86 W8        29.84R WCI  23
THREE RIVERS*  CLOUDY    32  25  76 NW12G17   29.85R WCI  23

$$
OHZ001>008-015>018-024>025-040800-
NORTHWEST OHIO

CITY           SKY/WX    TMP DP  RH WIND       PRES   REMARKS
WAUSEON*       CLOUDY    34  28  80 W12       29.83R WCI  25
DEFIANCE       CLOUDY    35  27  72 W6        29.85R WCI  30
FINDLAY        CLOUDY    35  31  85 W12       29.82S WCI  27
TOLEDO EXPRESS CLOUDY    34  27  75 W10       29.83R WCI  26
TOLEDO METCALF CLOUDY    35  28  75 W13       29.83R WCI  26
LIMA           CLOUDY    35  31  85 W10       29.84R WCI  27

$$
AND FOR LAKE MICHIGAN COASTAL AND OPEN LAKE BUOY OBSERVATIONS

STATION/POSITION TEMP    WIND        PRES    VSBY  WAVE
                 AIR SEA DIR/SP/G                  HT/PER
                 (F)     (DEG/KT/KT) (MB)    (MI)  (FT/S)
CALUMET HARBOR    32     280/  6/ 10 1010.5F
MICHIGAN CITY     31     250/  9/ 10   N/A
SAINT JOSEPH      30     240/  3/  6 1011.2F

$$
&&


USA.gov is the U.S. government's official web portal to all federal, state and local government web resources and services.